Location: Tamazert
(32.6352°N, 5.2072°W)
Time: 16:29:38
(UTC+00:00)

Transit 4A - All Passes

Search period start: 26 September 2022 00:00
Search period end: 06 October 2022 00:00
Orbit: 869 x 975 km, 66.8° (Epoch: 25 September)

Date Brightness Start Highest point End Pass type
(mag) Time Alt. Az. Time Alt. Az. Time Alt. Az.
26 Sep - 00:43:47 10° WSW 00:48:48 25° NW 00:53:44 10° N visible
26 Sep - 08:04:36 10° N 08:09:05 22° NE 08:13:31 10° ESE daylight
26 Sep - 09:50:04 10° NW 09:55:37 47° WSW 10:01:08 10° S daylight
26 Sep - 23:05:12 10° SSW 23:11:27 74° ESE 23:17:34 10° NNE night (unlit)
27 Sep - 00:54:29 10° W 00:58:20 17° NW 01:02:09 10° NNW visible
27 Sep - 08:13:18 10° N 08:18:32 33° ENE 08:23:43 10° ESE daylight
27 Sep - 09:59:45 10° NW 10:04:42 29° WSW 10:09:38 10° SSW daylight
27 Sep - 21:32:02 10° SE 21:35:00 14° ESE 21:37:56 10° ENE night (unlit)
27 Sep - 23:14:24 10° SSW 23:20:40 74° WNW 23:26:48 10° NNE night (unlit)
28 Sep - 01:06:23 10° WNW 01:07:59 11° NW 01:09:35 10° NNW visible
28 Sep - 08:22:13 10° NNW 08:27:54 51° ENE 08:33:30 10° SE daylight
28 Sep - 10:09:53 10° WNW 10:13:42 18° WSW 10:17:32 10° SSW daylight
28 Sep - 21:39:18 10° SSE 21:44:00 22° ESE 21:48:38 10° ENE night (unlit)
28 Sep - 23:23:58 10° SW 23:29:58 48° WNW 23:35:52 10° NNE night (unlit)
29 Sep - 06:48:20 10° NNE 06:49:56 11° NE 06:51:32 10° ENE daylight
29 Sep - 08:31:19 10° NNW 08:37:10 81° ENE 08:42:58 10° SSE daylight
29 Sep - 10:21:41 10° W 10:22:40 10° WSW 10:23:38 10° WSW daylight
29 Sep - 21:47:27 10° S 21:53:04 35° ESE 21:58:33 10° NE night (unlit)
29 Sep - 23:33:50 10° WSW 23:39:21 32° WNW 23:44:45 10° N night (unlit)
30 Sep - 06:55:51 10° N 06:59:34 17° NE 07:03:15 10° E daylight
30 Sep - 08:40:36 10° NNW 08:46:21 65° WSW 08:52:05 10° SSE daylight
30 Sep - 21:56:06 10° S 22:02:11 55° ESE 22:08:08 10° NE night (unlit)
30 Sep - 23:44:10 10° WSW 23:48:49 22° NW 23:53:24 10° N night (unlit)
01 Oct - 07:04:18 10° N 07:09:04 25° NE 07:13:49 10° ESE daylight
01 Oct - 08:50:06 10° NW 08:55:28 40° WSW 09:00:50 10° S daylight
01 Oct - 22:05:05 10° SSW 22:11:22 85° ESE 22:17:30 10° NNE night (unlit)
01 Oct - 23:55:07 10° W 23:58:23 15° NW 00:01:38 10° NNW night (unlit)
02 Oct - 07:13:05 10° N 07:18:30 38° ENE 07:23:52 10° SE daylight
02 Oct - 08:59:54 10° NW 09:04:32 25° WSW 09:09:09 10° SSW daylight
02 Oct - 20:31:09 10° SE 20:34:50 16° ESE 20:38:29 10° ENE night (unlit)
02 Oct - 22:14:25 10° SW 22:20:37 64° WNW 22:26:41 10° NNE night (unlit)
03 Oct - 07:22:04 10° NNW 07:27:49 60° ENE 07:33:31 10° SE daylight
03 Oct - 09:10:19 10° WNW 09:13:32 15° WSW 09:16:45 10° SW daylight
03 Oct - 20:38:48 10° SSE 20:43:51 26° ESE 20:48:50 10° NE night (unlit)
03 Oct - 22:24:05 10° SW 22:29:56 42° WNW 22:35:41 10° N night (unlit)
04 Oct - 05:47:25 10° NNE 05:50:00 13° NE 05:52:33 10° ENE visible
04 Oct - 07:31:13 10° NNW 07:37:03 87° WSW 07:42:52 10° SSE daylight
04 Oct - 20:47:09 10° S 20:52:56 41° ESE 20:58:37 10° NE night (unlit)
04 Oct - 22:34:06 10° WSW 22:39:21 28° NW 22:44:30 10° N night (unlit)
05 Oct - 05:55:27 10° N 05:59:35 20° NE 06:03:41 10° E visible
05 Oct - 07:40:34 10° NW 07:46:13 55° WSW 07:51:52 10° S daylight
05 Oct - 20:55:55 10° SSW 21:02:05 64° ESE 21:08:07 10° NNE night (unlit)
05 Oct - 22:44:36 10° W 22:48:50 19° NW 22:53:02 10° N night (unlit)
